Location: York
(31.8935°S, 116.7682°E)
Time: 23:18:39
(UTC+08:00)

Transit 2A Rocket - Visible Passes

Search period start: 22 June 2021 00:00
Search period end: 02 July 2021 00:00
Orbit: 592 x 911 km, 66.7° (Epoch: 21 June)

Date Brightness Start Highest point End Pass type
(mag) Time Alt. Az. Time Alt. Az. Time Alt. Az.
28 Jun 7.0 18:34:01 10° SSE 18:34:27 11° SSE 18:34:27 11° SSE visible
29 Jun 6.6 19:32:10 10° SSW 19:33:54 21° SSW 19:33:54 21° SSW visible
30 Jun 5.4 18:49:49 10° S 18:53:47 34° SE 18:53:47 34° SE visible
30 Jun 7.7 20:33:22 10° WSW 20:33:48 11° WSW 20:33:48 11° WSW visible
01 Jul 6.0 18:07:52 10° S 18:11:36 20° SE 18:14:19 13° E visible
01 Jul 6.1 19:49:47 10° SW 19:54:17 36° WNW 19:54:24 36° WNW visible
